Date String (YYYY-MM-DD hh:mm:ss) UTC,Instrument flags,absolute air pressure of the measurement (hPa),sample flow rate (lpm),inlet stack bypass flow (lpm),air temperature of the measurement (°C),ambient temperature measured by the external sensor (°C),aerosol sample conditioner tube jacket temperature (°C),OPC LED temperature (°C),internal box temperature (°C),relative humidity of the measurement (%),span deviation,mass concentration of particles derived from Lorenz-Mie calculation of OPC scattering (μg/m³),mass concentration of particles derived from Lorenz-Mie calculation of OPC scattering (μg/m³),mass concentration of particles derived from Lorenz-Mie calculation of OPC scattering (μg/m³)
DateTimeUTC,F1_M11,P_M11,Q1_M11,Q2_M11,T1_M11,T2_M11,T3_M11,T4_M11,T5_M11,U1_M11,ZSPAN_M11,X0_M11,X2_M11,X1_M11
2023-06-02 10:00:00,SystemResetWarning,0827.2,4.99,000.00,029.1,027.4,000.0,037.5,030.7,25.0,0000.0,0002.85,0001.48,0000.86
2023-06-02 10:01:00,SystemResetWarning,0827.2,5.01,000.00,029.1,027.4,000.0,037.5,030.7,25.3,0000.0,0002.93,0001.47,0000.86
2023-06-02 10:02:00,SystemResetWarning,0827.3,5.02,000.00,029.1,027.4,000.0,037.5,030.7,25.4,0000.0,0003.01,0001.45,0000.86
2023-06-02 10:03:00,SystemResetWarning,0827.2,5.00,000.00,029.1,027.4,000.0,037.5,030.7,25.6,0000.0,0003.58,0001.49,0000.85
2023-06-02 10:04:00,SystemResetWarning,0827.3,4.99,000.00,029.1,027.4,000.0,037.5,030.7,25.5,0000.0,0003.60,0001.51,0000.84
2023-06-02 10:05:00,SystemResetWarning,0827.2,4.99,000.00,029.1,027.4,000.0,037.5,030.7,25.6,0000.0,0003.56,0001.50,0000.83
2023-06-02 10:06:00,SystemResetWarning,0827.2,4.99,000.00,029.1,027.4,000.0,037.5,030.7,25.6,0000.0,0003.67,0001.55,0000.84
2023-06-02 10:07:00,SystemResetWarning,0827.2,5.00,000.00,029.1,027.4,000.0,037.5,030.7,25.8,0000.0,0003.73,0001.59,0000.86
2023-06-02 10:08:00,SystemResetWarning,0827.2,5.01,000.00,029.1,027.4,000.0,037.5,030.7,26.1,0000.0,0003.64,0001.54,0000.84
2023-06-02 10:09:00,SystemResetWarning,0827.2,5.00,000.00,029.1,027.4,000.0,037.5,030.7,26.1,0000.0,0003.53,0001.49,0000.84
2023-06-02 10:10:00,SystemResetWarning,0827.1,5.01,000.00,029.1,027.4,000.0,037.5,030.7,25.9,0000.0,0003.49,0001.50,0000.84
2023-06-02 10:11:00,SystemResetWarning,0827.2,5.01,000.00,029.1,027.4,000.0,037.5,030.7,25.9,0000.0,0004.52,0001.49,0000.83
2023-06-02 10:12:00,SystemResetWarning,0827.2,5.01,000.00,029.1,027.4,000.0,037.5,030.7,26.0,0000.0,0004.57,0001.48,0000.82
2023-06-02 10:13:00,SystemResetWarning,0827.2,5.00,000.00,029.1,027.4,000.0,037.5,030.7,25.9,0000.0,0004.62,0001.51,0000.81
2023-06-02 10:14:00,SystemResetWarning,0827.2,5.00,000.00,029.1,027.4,000.0,037.5,030.7,25.8,0000.0,0003.85,0001.45,0000.79
2023-06-02 10:15:00,SystemResetWarning,0827.1,5.01,000.00,029.1,027.4,000.0,037.5,030.7,25.8,0000.0,0003.67,0001.37,0000.77
2023-06-02 10:16:00,SystemResetWarning,0827.1,5.00,000.00,029.1,027.4,000.0,037.5,030.7,25.8,0000.0,0003.64,0001.33,0000.75
2023-06-02 10:17:00,SystemResetWarning,0827.1,5.00,000.00,029.1,027.5,000.0,037.5,030.7,25.9,0000.0,0003.70,0001.32,0000.73
2023-06-02 10:18:00,SystemResetWarning,0827.1,5.00,000.00,029.1,027.5,000.0,037.5,030.7,25.7,0000.0,0003.71,0001.30,0000.72
2023-06-02 10:19:00,SystemResetWarning,0827.1,5.00,000.00,029.1,027.5,000.0,037.5,030.7,25.7,0000.0,0003.83,0001.34,0000.72
2023-06-02 10:20:00,SystemResetWarning,0827.1,4.99,000.00,029.1,027.5,000.0,037.5,030.7,25.8,0000.0,0003.79,0001.32,0000.71
2023-06-02 10:21:00,SystemResetWarning,0827.2,5.00,000.00,029.1,027.5,000.0,037.5,030.7,25.6,0000.0,0003.79,0001.31,0000.70
2023-06-02 10:22:00,SystemResetWarning,0827.1,5.01,000.00,029.1,027.5,000.0,037.5,030.7,25.5,0000.0,0003.17,0001.31,0000.70
2023-06-02 10:23:00,SystemResetWarning,0827.1,5.00,000.00,029.1,027.5,000.0,037.5,030.7,25.3,0000.0,0002.50,0001.29,0000.69
2023-06-02 10:24:00,SystemResetWarning,0827.1,5.00,000.00,029.1,027.5,000.0,037.5,030.7,25.1,0000.0,0002.34,0001.21,0000.68
2023-06-02 10:25:00,SystemResetWarning,0827.1,5.00,000.00,029.1,027.5,000.0,037.5,030.7,24.9,0000.0,0002.26,0001.18,0000.68
2023-06-02 10:26:00,SystemResetWarning,0827.2,5.00,000.00,029.1,027.5,000.0,037.5,030.7,25.3,0000.0,0002.28,0001.18,0000.68
2023-06-02 10:27:00,SystemResetWarning,0827.2,5.00,000.00,029.1,027.5,000.0,037.5,030.7,25.7,0000.0,0002.30,0001.21,0000.70
2023-06-02 10:28:00,SystemResetWarning,0827.2,5.01,000.00,029.1,027.5,000.0,037.5,030.7,25.5,0000.0,0002.17,0001.18,0000.69
2023-06-02 10:29:00,SystemResetWarning,0827.2,5.01,000.00,029.1,027.5,000.0,037.5,030.8,25.4,0000.0,0002.05,0001.13,0000.68
2023-06-02 10:30:00,SystemResetWarning,0827.2,5.00,000.00,029.1,027.5,000.0,037.5,030.8,25.5,0000.0,0001.96,0001.09,0000.67
2023-06-02 10:31:00,SystemResetWarning,0827.2,4.99,000.00,029.1,027.5,000.0,037.5,030.8,25.2,0000.0,0001.78,0001.01,0000.65
2023-06-02 10:32:00,SystemResetWarning,0827.2,5.01,000.00,029.1,027.5,000.0,037.5,030.8,24.9,0000.0,0001.66,0000.97,0000.64
2023-06-02 10:33:00,SystemResetWarning,0827.2,5.01,000.00,029.1,027.5,000.0,037.5,030.8,24.9,0000.0,0001.61,0000.92,0000.62
2023-06-02 10:34:00,SystemResetWarning,0827.2,5.01,000.00,029.1,027.5,000.0,037.5,030.8,24.8,0000.0,0001.58,0000.90,0000.62
2023-06-02 10:35:00,SystemResetWarning,0827.2,5.01,000.00,029.1,027.5,000.0,037.5,030.8,24.9,0000.0,0001.69,0000.94,0000.62
2023-06-02 10:36:00,SystemResetWarning,0827.2,4.99,000.00,029.2,027.5,000.0,037.5,030.8,24.8,0000.0,0001.76,0000.96,0000.61
2023-06-02 10:37:00,SystemResetWarning,0827.2,5.00,000.00,029.2,027.5,000.0,037.5,030.8,24.6,0000.0,0001.68,0000.93,0000.61
2023-06-02 10:38:00,SystemResetWarning,0827.2,5.00,000.00,029.2,027.5,000.0,037.5,030.8,24.6,0000.0,0001.64,0000.90,0000.58
2023-06-02 10:39:00,SystemResetWarning,0827.2,4.99,000.00,029.2,027.5,000.0,037.5,030.8,25.1,0000.0,0001.70,0000.90,0000.58
2023-06-02 10:40:00,SystemResetWarning,0827.2,5.00,000.00,029.2,027.5,000.0,037.5,030.8,25.4,0000.0,0001.75,0000.92,0000.59
2023-06-02 10:41:00,SystemResetWarning,0827.2,5.00,000.00,029.2,027.5,000.0,037.5,030.8,25.8,0000.0,0001.87,0000.95,0000.59
2023-06-02 10:42:00,SystemResetWarning,0827.2,5.00,000.00,029.2,027.5,000.0,037.5,030.8,26.4,0000.0,0001.93,0001.00,0000.60
2023-06-02 10:43:00,SystemResetWarning,0827.2,5.01,000.00,029.2,027.6,000.0,037.5,030.8,26.8,0000.0,0001.98,0001.03,0000.62
2023-06-02 10:44:00,SystemResetWarning,0827.3,5.00,000.00,029.2,027.6,000.0,037.5,030.8,26.8,0000.0,0002.05,0001.11,0000.64
2023-06-02 10:45:00,SystemResetWarning,0827.3,4.99,000.00,029.2,027.6,000.0,037.5,030.8,27.0,0000.0,0002.13,0001.15,0000.65
2023-06-02 10:46:00,SystemResetWarning,0827.3,5.00,000.00,029.2,027.6,000.0,037.5,030.8,27.3,0000.0,0002.10,0001.14,0000.67
2023-06-02 10:47:00,SystemResetWarning,0827.3,5.00,000.00,029.2,027.6,000.0,037.5,030.8,27.2,0000.0,0002.20,0001.17,0000.69
2023-06-02 10:48:00,SystemResetWarning,0827.3,5.00,000.00,029.2,027.6,000.0,037.5,030.8,27.3,0000.0,0002.33,0001.25,0000.73
2023-06-02 10:49:00,SystemResetWarning,0827.3,5.01,000.00,029.2,027.6,000.0,037.5,030.8,27.3,0000.0,0002.37,0001.30,0000.78
2023-06-02 10:50:00,SystemResetWarning,0827.2,5.00,000.00,029.2,027.6,000.0,037.5,030.8,27.3,0000.0,0002.61,0001.43,0000.83
2023-06-02 10:51:00,SystemResetWarning,0827.3,4.99,000.00,029.2,027.6,000.0,037.5,030.8,26.7,0000.0,0002.53,0001.42,0000.85
2023-06-02 10:52:00,SystemResetWarning,0827.2,5.00,000.00,029.2,027.6,000.0,037.5,030.8,26.7,0000.0,0002.38,0001.40,0000.87
2023-06-02 10:53:00,SystemResetWarning,0827.2,4.99,000.00,029.2,027.6,000.0,037.5,030.8,26.7,0000.0,0002.58,0001.46,0000.90
2023-06-02 10:54:00,SystemResetWarning,0827.2,4.99,000.00,029.2,027.6,000.0,037.5,030.8,26.7,0000.0,0002.79,0001.55,0000.93
2023-06-02 10:55:00,SystemResetWarning,0827.2,5.00,000.00,029.2,027.6,000.0,037.5,030.8,26.7,0000.0,0002.89,0001.58,0000.95
2023-06-02 10:56:00,SystemResetWarning,0827.2,5.01,000.00,029.2,027.6,000.0,037.6,030.8,26.5,0000.0,0003.46,0001.60,0000.97
2023-06-02 10:57:00,SystemResetWarning,0827.2,5.01,000.00,029.2,027.6,000.0,037.6,030.8,26.2,0000.0,0003.54,0001.65,0000.99
2023-06-02 10:58:00,SystemResetWarning,0827.2,5.01,000.00,029.2,027.6,000.0,037.6,030.8,26.0,0000.0,0003.50,0001.65,0000.99
2023-06-02 10:59:00,SystemResetWarning,0827.1,5.00,000.00,029.2,027.6,000.0,037.6,030.8,25.7,0000.0,0003.59,0001.69,0000.99
